| time (UTC) | temp C | wind direction | speed KPH | gust KPH | rain 1hr cm | rain 24hr cm | rain mn cm | humidity % | barometer mb |
| 20260505124829 | 16 | 225 | 4.8 | 4.8 | 0.00 | 0.00 | 0.00 | 69 | 1014.8 |
| 20260505124326 | 16 | 155 | 3.2 | 3.2 | 0.00 | 0.00 | 0.00 | 73 | 1014.8 |
| 20260505123822 | 15 | 138 | 3.2 | 3.2 | 0.00 | 0.00 | 0.00 | 74 | 1014.6 |
| 20260505123319 | 15 | 161 | 1.6 | 1.6 | 0.00 | 0.00 | 0.00 | 76 | 1014.5 |
| 20260505122815 | 15 | 204 | 4.8 | 4.8 | 0.00 | 0.00 | 0.00 | 74 | 1014.7 |
| 20260505122313 | 15 | 154 | 1.6 | 3.2 | 0.00 | 0.00 | 0.00 | 76 | 1014.6 |
| 20260505121809 | 14 | 135 | 1.6 | 3.2 | 0.00 | 0.00 | 0.00 | 76 | 1014.6 |
| 20260505121306 | 13 | 149 | 3.2 | 3.2 | 0.00 | 0.00 | 0.00 | 76 | 1014.4 |
| 20260505120802 | 13 | 140 | 0.0 | 1.6 | 0.00 | 0.00 | 0.00 | 79 | 1014.4 |
| 20260505120258 | 13 | 149 | 0.0 | 1.6 | 0.00 | 0.00 | 0.00 | 79 | 1014.5 |
| 20260505115757 | 13 | 157 | 1.6 | 1.6 | 0.00 | 0.00 | 0.00 | 77 | 1014.4 |
| 20260505115255 | 12 | 162 | 1.6 | 1.6 | 0.00 | 0.00 | 0.00 | 80 | 1014.0 |
| 20260505114752 | 12 | 162 | 1.6 | 1.6 | 0.00 | 0.00 | 0.00 | 79 | 1014.3 |
| 20260505114248 | 12 | 164 | 1.6 | 3.2 | 0.00 | 0.00 | 0.00 | 79 | 1014.1 |
| 20260505113745 | 12 | 183 | 1.6 | 3.2 | 0.00 | 0.00 | 0.00 | 78 | 1014.0 |
| 20260505113241 | 12 | 156 | 1.6 | 1.6 | 0.00 | 0.00 | 0.00 | 77 | 1014.0 |
| 20260505112737 | 13 | 150 | 1.6 | 1.6 | 0.00 | 0.00 | 0.00 | 75 | 1014.0 |
| 20260505112235 | 12 | 148 | 0.0 | 0.0 | 0.00 | 0.00 | 0.00 | 77 | 1014.0 |
| 20260505111735 | 13 | 173 | 1.6 | 3.2 | 0.00 | 0.00 | 0.00 | 75 | 1014.0 |
| 20260505111231 | 13 | 175 | 4.8 | 4.8 | 0.00 | 0.00 | 0.00 | 72 | 1013.9 |
| 20260505110727 | 13 | 144 | 4.8 | 4.8 | 0.00 | 0.00 | 0.00 | 70 | 1013.8 |
| 20260505110225 | 13 | 152 | 1.6 | 1.6 | 0.00 | 0.00 | 0.00 | 74 | 1014.0 |
| 20260505102200 | 13 | 162 | 3.2 | 3.2 | 0.00 | 0.00 | 0.00 | 73 | 1013.5 |
| 20260505101659 | 13 | 139 | 4.8 | 4.8 | 0.00 | 0.00 | 0.00 | 69 | 1013.6 |
| 20260505101155 | 13 | 116 | 3.2 | 8.0 | 0.00 | 0.00 | 0.00 | 71 | 1013.5 |
| 20260505100651 | 13 | 174 | 6.4 | 9.7 | 0.00 | 0.00 | 0.00 | 70 | 1013.8 |
| 20260505100149 | 13 | 138 | 3.2 | 3.2 | 0.00 | 0.00 | 0.00 | 71 | 1013.6 |
| 20260505095644 | 13 | 190 | 3.2 | 4.8 | 0.00 | 0.00 | 0.00 | 72 | 1013.6 |
| 20260505095142 | 13 | 117 | 8.0 | 9.7 | 0.00 | 0.00 | 0.00 | 71 | 1013.4 |
| 20260505094637 | 13 | 156 | 4.8 | 4.8 | 0.00 | 0.00 | 0.00 | 71 | 1013.3 |
| 20260505094134 | 13 | 166 | 4.8 | 4.8 | 0.00 | 0.00 | 0.00 | 71 | 1013.4 |
| 20260505093630 | 13 | 154 | 1.6 | 3.2 | 0.00 | 0.00 | 0.00 | 72 | 1013.6 |
| 20260505093128 | 13 | 156 | 1.6 | 3.2 | 0.00 | 0.00 | 0.00 | 76 | 1013.7 |
| 20260505092625 | 13 | 162 | 3.2 | 3.2 | 0.00 | 0.00 | 0.00 | 71 | 1013.8 |
| 20260505092124 | 14 | 169 | 0.0 | 1.6 | 0.00 | 0.00 | 0.00 | 73 | 1013.9 |
| 20260505091620 | 14 | 163 | 3.2 | 4.8 | 0.00 | 0.00 | 0.00 | 71 | 1013.8 |
| 20260505091118 | 14 | 197 | 4.8 | 4.8 | 0.00 | 0.00 | 0.00 | 71 | 1013.8 |
| 20260505090615 | 14 | 199 | 4.8 | 4.8 | 0.00 | 0.00 | 0.00 | 72 | 1013.8 |
| 20260505090114 | 14 | 132 | 3.2 | 3.2 | 0.00 | 0.00 | 0.00 | 71 | 1013.9 |
| 20260505085610 | 14 | 164 | 6.4 | 9.7 | 0.00 | 0.00 | 0.00 | 71 | 1013.9 |
| 20260505085109 | 14 | 150 | 3.2 | 3.2 | 0.00 | 0.00 | 0.00 | 71 | 1013.8 |
| 20260505084606 | 15 | 155 | 3.2 | 4.8 | 0.00 | 0.00 | 0.00 | 69 | 1013.9 |
| 20260505084105 | 14 | 150 | 8.0 | 9.7 | 0.00 | 0.00 | 0.00 | 70 | 1013.7 |
| 20260505083602 | 14 | 110 | 4.8 | 9.7 | 0.00 | 0.00 | 0.00 | 71 | 1013.8 |
| 20260505083058 | 13 | 169 | 8.0 | 11.3 | 0.00 | 0.00 | 0.00 | 71 | 1013.9 |
| 20260505082554 | 13 | 178 | 3.2 | 3.2 | 0.00 | 0.00 | 0.00 | 73 | 1013.8 |
| 20260505082051 | 13 | 218 | 3.2 | 3.2 | 0.00 | 0.00 | 0.00 | 77 | 1013.7 |
| 20260505081547 | 14 | 166 | 3.2 | 3.2 | 0.00 | 0.00 | 0.00 | 74 | 1013.7 |
| 20260505081044 | 13 | 167 | 3.2 | 3.2 | 0.00 | 0.00 | 0.00 | 73 | 1013.6 |
| 20260505080540 | 13 | 149 | 0.0 | 1.6 | 0.00 | 0.00 | 0.00 | 74 | 1013.6 |
| 20260505080038 | 14 | 144 | 1.6 | 1.6 | 0.00 | 0.00 | 0.00 | 72 | 1013.4 |
| 20260505075533 | 14 | 143 | 1.6 | 1.6 | 0.00 | 0.00 | 0.00 | 71 | 1013.6 |
| 20260505075030 | 14 | 136 | 3.2 | 8.0 | 0.00 | 0.00 | 0.00 | 72 | 1013.6 |
| 20260505074527 | 14 | 149 | 1.6 | 3.2 | 0.00 | 0.00 | 0.00 | 72 | 1013.5 |
| 20260505074025 | 13 | 163 | 1.6 | 1.6 | 0.00 | 0.00 | 0.00 | 73 | 1013.3 |
| 20260505073522 | 14 | 176 | 3.2 | 3.2 | 0.00 | 0.00 | 0.00 | 72 | 1013.4 |
| 20260505073020 | 13 | 208 | 1.6 | 3.2 | 0.00 | 0.00 | 0.00 | 75 | 1013.2 |
| 20260505072515 | 14 | 148 | 1.6 | 3.2 | 0.00 | 0.00 | 0.00 | 73 | 1013.1 |
| 20260505072012 | 13 | 157 | 4.8 | 4.8 | 0.00 | 0.00 | 0.00 | 73 | 1013.4 |
| 20260505071507 | 13 | 188 | 3.2 | 3.2 | 0.00 | 0.00 | 0.00 | 74 | 1013.4 |
| 20260505071006 | 13 | 182 | 3.2 | 3.2 | 0.00 | 0.00 | 0.00 | 74 | 1013.2 |
| 20260505070503 | 14 | 149 | 1.6 | 3.2 | 0.00 | 0.00 | 0.00 | 74 | 1013.4 |
| 20260505065958 | 14 | 164 | 1.6 | 1.6 | 0.00 | 0.00 | 0.00 | 74 | 1013.1 |
| 20260505065455 | 14 | 159 | 3.2 | 3.2 | 0.00 | 0.00 | 0.00 | 73 | 1013.3 |
| 20260505064951 | 14 | 147 | 1.6 | 3.2 | 0.00 | 0.00 | 0.00 | 72 | 1013.2 |
| 20260505064448 | 15 | 146 | 3.2 | 3.2 | 0.00 | 0.00 | 0.00 | 72 | 1013.3 |
| 20260505063947 | 15 | 164 | 4.8 | 4.8 | 0.00 | 0.00 | 0.00 | 71 | 1013.5 |
| 20260505063443 | 15 | 131 | 3.2 | 3.2 | 0.00 | 0.00 | 0.00 | 71 | 1013.4 |
| 20260505062940 | 15 | 154 | 1.6 | 1.6 | 0.00 | 0.00 | 0.00 | 70 | 1013.7 |
| 20260505062437 | 15 | 173 | 3.2 | 4.8 | 0.00 | 0.00 | 0.00 | 70 | 1013.3 |
| 20260505061933 | 15 | 162 | 3.2 | 3.2 | 0.00 | 0.00 | 0.00 | 68 | 1013.4 |
| 20260505061432 | 15 | 177 | 4.8 | 4.8 | 0.00 | 0.00 | 0.00 | 68 | 1013.6 |
| 20260505060929 | 16 | 107 | 3.2 | 4.8 | 0.00 | 0.00 | 0.00 | 67 | 1013.8 |
| 20260505060426 | 16 | 171 | 4.8 | 8.0 | 0.00 | 0.00 | 0.00 | 67 | 1013.7 |
| 20260505055922 | 16 | 188 | 4.8 | 4.8 | 0.00 | 0.00 | 0.00 | 67 | 1013.6 |
| 20260505055418 | 16 | 159 | 4.8 | 4.8 | 0.00 | 0.00 | 0.00 | 67 | 1013.6 |
| 20260505054915 | 16 | 150 | 4.8 | 4.8 | 0.00 | 0.00 | 0.00 | 66 | 1013.7 |
| 20260505054412 | 16 | 209 | 11.3 | 16.1 | 0.00 | 0.00 | 0.00 | 66 | 1013.5 |
| 20260505053910 | 16 | 228 | 3.2 | 4.8 | 0.00 | 0.00 | 0.00 | 66 | 1013.6 |
| 20260505053407 | 16 | 181 | 3.2 | 3.2 | 0.00 | 0.00 | 0.00 | 67 | 1013.6 |
| 20260505052904 | 16 | 185 | 4.8 | 4.8 | 0.00 | 0.00 | 0.00 | 65 | 1013.4 |
| 20260505052401 | 16 | 142 | 8.0 | 9.7 | 0.00 | 0.00 | 0.00 | 65 | 1013.7 |
| 20260505051858 | 16 | 151 | 4.8 | 8.0 | 0.00 | 0.00 | 0.00 | 64 | 1013.5 |
| 20260505051355 | 17 | 189 | 1.6 | 4.8 | 0.00 | 0.00 | 0.00 | 64 | 1013.6 |
| 20260505050853 | 16 | 209 | 9.7 | 11.3 | 0.00 | 0.00 | 0.00 | 64 | 1013.4 |
| 20260505050351 | 16 | 145 | 3.2 | 4.8 | 0.00 | 0.00 | 0.00 | 65 | 1013.5 |
| 20260505041319 | 17 | 133 | 8.0 | 11.3 | 0.00 | 0.00 | 0.00 | 68 | 1012.8 |
| 20260505040816 | 17 | 188 | 11.3 | 12.9 | 0.00 | 0.00 | 0.00 | 67 | 1013.1 |
| 20260505040314 | 17 | 188 | 3.2 | 3.2 | 0.00 | 0.00 | 0.00 | 67 | 1012.8 |
| 20260505035810 | 17 | 192 | 1.6 | 3.2 | 0.00 | 0.00 | 0.00 | 68 | 1012.7 |
| 20260505035306 | 17 | 155 | 8.0 | 11.3 | 0.00 | 0.00 | 0.00 | 69 | 1012.6 |
| 20260505034803 | 17 | 182 | 4.8 | 4.8 | 0.00 | 0.00 | 0.00 | 69 | 1012.7 |
| 20260505034300 | 17 | 128 | 11.3 | 17.7 | 0.00 | 0.00 | 0.00 | 69 | 1013.0 |
| 20260505033756 | 17 | 212 | 1.6 | 3.2 | 0.00 | 0.00 | 0.00 | 70 | 1012.9 |
| 20260505033254 | 17 | 172 | 4.8 | 4.8 | 0.00 | 0.00 | 0.00 | 69 | 1013.1 |
| 20260505032752 | 17 | 156 | 1.6 | 1.6 | 0.00 | 0.00 | 0.00 | 70 | 1013.1 |
| 20260505032248 | 17 | 196 | 4.8 | 4.8 | 0.00 | 0.00 | 0.00 | 69 | 1013.2 |
| 20260505031745 | 17 | 199 | 4.8 | 8.0 | 0.00 | 0.00 | 0.00 | 69 | 1012.9 |
| 20260505031241 | 17 | 182 | 8.0 | 16.1 | 0.00 | 0.00 | 0.00 | 69 | 1012.8 |
| 20260505030738 | 17 | 164 | 11.3 | 14.5 | 0.00 | 0.00 | 0.00 | 69 | 1012.7 |
| 20260505030235 | 17 | 208 | 8.0 | 11.3 | 0.00 | 0.00 | 0.00 | 69 | 1012.9 |
| 20260505025730 | 17 | 204 | 11.3 | 12.9 | 0.00 | 0.00 | 0.00 | 69 | 1012.9 |
| 20260505025229 | 17 | 184 | 4.8 | 4.8 | 0.00 | 0.00 | 0.00 | 69 | 1012.7 |
| 20260505024727 | 17 | 175 | 6.4 | 9.7 | 0.00 | 0.00 | 0.00 | 70 | 1012.9 |
| 20260505024224 | 17 | 163 | 8.0 | 11.3 | 0.00 | 0.00 | 0.00 | 70 | 1013.1 |
| 20260505023721 | 17 | 189 | 4.8 | 4.8 | 0.00 | 0.00 | 0.00 | 70 | 1012.9 |
| 20260505023218 | 16 | 160 | 3.2 | 4.8 | 0.00 | 0.00 | 0.00 | 70 | 1012.9 |
| 20260505022715 | 17 | 154 | 3.2 | 3.2 | 0.00 | 0.00 | 0.00 | 70 | 1012.9 |
| 20260505022212 | 17 | 128 | 4.8 | 4.8 | 0.00 | 0.00 | 0.00 | 68 | 1013.0 |
| 20260505021709 | 16 | 149 | 3.2 | 3.2 | 0.00 | 0.00 | 0.00 | 71 | 1012.9 |
| 20260505021206 | 17 | 193 | 8.0 | 11.3 | 0.00 | 0.00 | 0.00 | 68 | 1013.0 |
| 20260505020701 | 17 | 197 | 6.4 | 8.0 | 0.00 | 0.00 | 0.00 | 68 | 1013.0 |
| 20260505020157 | 17 | 163 | 3.2 | 4.8 | 0.00 | 0.00 | 0.00 | 68 | 1012.8 |
| 20260505015655 | 17 | 184 | 4.8 | 4.8 | 0.00 | 0.00 | 0.00 | 67 | 1013.0 |
| 20260505015151 | 17 | 136 | 3.2 | 3.2 | 0.00 | 0.00 | 0.00 | 66 | 1013.0 |
| 20260505014648 | 17 | 180 | 3.2 | 3.2 | 0.00 | 0.00 | 0.00 | 65 | 1013.1 |
| 20260505014145 | 17 | 208 | 8.0 | 9.7 | 0.00 | 0.00 | 0.00 | 65 | 1013.0 |
| 20260505013642 | 17 | 195 | 3.2 | 3.2 | 0.00 | 0.00 | 0.00 | 65 | 1013.1 |
| 20260505013139 | 17 | 176 | 3.2 | 3.2 | 0.00 | 0.00 | 0.00 | 68 | 1013.1 |
| 20260505012638 | 18 | 150 | 1.6 | 1.6 | 0.00 | 0.00 | 0.00 | 65 | 1012.9 |
| 20260505012134 | 18 | 165 | 8.0 | 9.7 | 0.00 | 0.00 | 0.00 | 63 | 1012.8 |
| 20260505011630 | 18 | 180 | 1.6 | 3.2 | 0.00 | 0.00 | 0.00 | 65 | 1012.9 |
| 20260505011127 | 18 | 151 | 0.0 | 1.6 | 0.00 | 0.00 | 0.00 | 64 | 1012.8 |
| 20260505010622 | 18 | 149 | 1.6 | 1.6 | 0.00 | 0.00 | 0.00 | 64 | 1012.6 |
| 20260505010119 | 18 | 168 | 1.6 | 1.6 | 0.00 | 0.00 | 0.00 | 62 | 1012.8 |
| 20260505005615 | 19 | 131 | 1.6 | 1.6 | 0.00 | 0.00 | 0.00 | 63 | 1012.7 |
| 20260505005113 | 19 | 152 | 4.8 | 4.8 | 0.00 | 0.00 | 0.00 | 62 | 1012.7 |
| 20260505004610 | 19 | 127 | 1.6 | 1.6 | 0.00 | 0.00 | 0.00 | 62 | 1012.6 |
| 20260505004107 | 19 | 222 | 4.8 | 8.0 | 0.00 | 0.00 | 0.00 | 63 | 1012.5 |
| 20260505003604 | 19 | 165 | 3.2 | 3.2 | 0.00 | 0.00 | 0.00 | 62 | 1012.5 |
| 20260505003101 | 20 | 172 | 4.8 | 4.8 | 0.00 | 0.00 | 0.00 | 63 | 1012.5 |
| 20260505002556 | 20 | 134 | 1.6 | 3.2 | 0.00 | 0.00 | 0.00 | 62 | 1012.5 |
| 20260505002055 | 20 | 182 | 3.2 | 3.2 | 0.00 | 0.00 | 0.00 | 60 | 1012.3 |
| 20260505001552 | 20 | 187 | 3.2 | 4.8 | 0.00 | 0.00 | 0.00 | 59 | 1012.6 |
| 20260505001049 | 20 | 163 | 3.2 | 8.0 | 0.00 | 0.00 | 0.00 | 60 | 1012.5 |
| 20260505000547 | 20 | 103 | 4.8 | 4.8 | 0.00 | 0.00 | 0.00 | 60 | 1012.4 |
| 20260505000044 | 20 | 263 | 6.4 | 11.3 | 0.00 | 0.00 | 0.00 | 61 | 1012.6 |
| 20260504235540 | 21 | 191 | 4.8 | 8.0 | 0.00 | 0.00 | 0.00 | 60 | 1012.4 |
| 20260504235037 | 21 | 127 | 8.0 | 11.3 | 0.00 | 0.00 | 0.00 | 59 | 1012.4 |
| 20260504234534 | 21 | 168 | 4.8 | 4.8 | 0.00 | 0.00 | 0.00 | 59 | 1012.4 |
| 20260504234031 | 21 | 158 | 4.8 | 9.7 | 0.00 | 0.00 | 0.00 | 59 | 1012.3 |
| 20260504233526 | 21 | 193 | 6.4 | 12.9 | 0.00 | 0.00 | 0.00 | 59 | 1012.3 |
| 20260504233024 | 21 | 156 | 1.6 | 3.2 | 0.00 | 0.00 | 0.00 | 59 | 1012.4 |
| 20260504232521 | 21 | 115 | 8.0 | 9.7 | 0.00 | 0.00 | 0.00 | 58 | 1012.3 |
| 20260504232019 | 22 | 152 | 1.6 | 1.6 | 0.00 | 0.00 | 0.00 | 58 | 1012.4 |
| 20260504231515 | 22 | 188 | 9.7 | 12.9 | 0.00 | 0.00 | 0.00 | 56 | 1012.5 |
| 20260504231011 | 22 | 157 | 4.8 | 8.0 | 0.00 | 0.00 | 0.00 | 58 | 1012.6 |
| 20260504230508 | 22 | 198 | 3.2 | 4.8 | 0.00 | 0.00 | 0.00 | 57 | 1012.4 |
| 20260504230006 | 22 | 217 | 8.0 | 11.3 | 0.00 | 0.00 | 0.00 | 56 | 1012.4 |
| 20260504225503 | 22 | 177 | 6.4 | 9.7 | 0.00 | 0.00 | 0.00 | 56 | 1012.4 |
| 20260504225000 | 22 | 183 | 11.3 | 14.5 | 0.00 | 0.00 | 0.00 | 56 | 1012.2 |
| 20260504224456 | 22 | 184 | 6.4 | 8.0 | 0.00 | 0.00 | 0.00 | 56 | 1012.4 |
| 20260504223954 | 22 | 193 | 8.0 | 9.7 | 0.00 | 0.00 | 0.00 | 57 | 1012.5 |
| 20260504223450 | 22 | 206 | 6.4 | 8.0 | 0.00 | 0.00 | 0.00 | 56 | 1012.5 |
| 20260504222945 | 23 | 162 | 3.2 | 3.2 | 0.00 | 0.00 | 0.00 | 56 | 1012.3 |
| 20260504222443 | 23 | 188 | 6.4 | 9.7 | 0.00 | 0.00 | 0.00 | 56 | 1012.4 |
| 20260504221941 | 23 | 201 | 3.2 | 3.2 | 0.00 | 0.00 | 0.00 | 55 | 1012.5 |
| 20260504221438 | 23 | 153 | 3.2 | 8.0 | 0.00 | 0.00 | 0.00 | 55 | 1012.6 |
| 20260504220934 | 23 | 150 | 3.2 | 4.8 | 0.00 | 0.00 | 0.00 | 55 | 1012.5 |
| 20260504220431 | 23 | 248 | 9.7 | 12.9 | 0.00 | 0.00 | 0.00 | 54 | 1012.5 |
| 20260504215928 | 23 | 205 | 4.8 | 4.8 | 0.00 | 0.00 | 0.00 | 54 | 1012.3 |
| 20260504215425 | 23 | 211 | 1.6 | 1.6 | 0.00 | 0.00 | 0.00 | 53 | 1012.5 |
| 20260504214921 | 24 | 237 | 8.0 | 11.3 | 0.00 | 0.00 | 0.00 | 53 | 1012.7 |
| 20260504214418 | 24 | 183 | 8.0 | 11.3 | 0.00 | 0.00 | 0.00 | 51 | 1012.3 |
| 20260504213915 | 24 | 159 | 1.6 | 3.2 | 0.00 | 0.00 | 0.00 | 47 | 1012.2 |
| 20260504213410 | 23 | 217 | 3.2 | 4.8 | 0.00 | 0.00 | 0.00 | 46 | 1012.3 |
| 20260504212909 | 23 | 237 | 11.3 | 14.5 | 0.00 | 0.00 | 0.00 | 43 | 1012.4 |
| 20260504212404 | 24 | 193 | 9.7 | 14.5 | 0.00 | 0.00 | 0.00 | 44 | 1012.4 |
| 20260504211902 | 24 | 243 | 8.0 | 11.3 | 0.00 | 0.00 | 0.00 | 42 | 1012.5 |
| 20260504211358 | 24 | 252 | 11.3 | 14.5 | 0.00 | 0.00 | 0.00 | 43 | 1012.5 |
| 20260504210855 | 24 | 179 | 9.7 | 11.3 | 0.00 | 0.00 | 0.00 | 44 | 1012.5 |
| 20260504210352 | 24 | 200 | 8.0 | 9.7 | 0.00 | 0.00 | 0.00 | 44 | 1012.5 |
| 20260504205849 | 25 | 243 | 6.4 | 11.3 | 0.00 | 0.00 | 0.00 | 48 | 1012.7 |
| 20260504205347 | 24 | 233 | 4.8 | 8.0 | 0.00 | 0.00 | 0.00 | 45 | 1012.7 |
| 20260504204845 | 24 | 152 | 4.8 | 8.0 | 0.00 | 0.00 | 0.00 | 46 | 1012.5 |
| 20260504204343 | 24 | 140 | 4.8 | 8.0 | 0.00 | 0.00 | 0.00 | 45 | 1012.8 |
| 20260504203842 | 24 | 174 | 1.6 | 3.2 | 0.00 | 0.00 | 0.00 | 49 | 1012.8 |
| 20260504203339 | 24 | 112 | 4.8 | 8.0 | 0.00 | 0.00 | 0.00 | 45 | 1012.8 |
| 20260504202834 | 24 | 246 | 14.5 | 16.1 | 0.00 | 0.00 | 0.00 | 43 | 1012.9 |
| 20260504202332 | 24 | 198 | 6.4 | 9.7 | 0.00 | 0.00 | 0.00 | 47 | 1012.9 |
| 20260504201828 | 23 | 243 | 8.0 | 11.3 | 0.00 | 0.00 | 0.00 | 51 | 1012.7 |
| 20260504201326 | 23 | 213 | 8.0 | 9.7 | 0.00 | 0.00 | 0.00 | 53 | 1012.8 |
| 20260504200823 | 24 | 191 | 11.3 | 12.9 | 0.00 | 0.00 | 0.00 | 50 | 1013.2 |
| 20260504200320 | 24 | 273 | 6.4 | 12.9 | 0.00 | 0.00 | 0.00 | 50 | 1013.1 |
| 20260504195816 | 23 | 273 | 6.4 | 11.3 | 0.00 | 0.00 | 0.00 | 51 | 1013.2 |
| 20260504195312 | 23 | 188 | 4.8 | 8.0 | 0.00 | 0.00 | 0.00 | 52 | 1013.2 |
| 20260504194809 | 23 | 216 | 11.3 | 12.9 | 0.00 | 0.00 | 0.00 | 53 | 1013.3 |
| 20260504194305 | 23 | 248 | 14.5 | 20.9 | 0.00 | 0.00 | 0.00 | 49 | 1013.4 |
| 20260504193801 | 23 | 275 | 3.2 | 4.8 | 0.00 | 0.00 | 0.00 | 54 | 1013.5 |
| 20260504193259 | 23 | 229 | 4.8 | 4.8 | 0.00 | 0.00 | 0.00 | 52 | 1013.3 |
| 20260504192757 | 23 | 214 | 9.7 | 11.3 | 0.00 | 0.00 | 0.00 | 51 | 1013.5 |
| 20260504192254 | 23 | 230 | 11.3 | 14.5 | 0.00 | 0.00 | 0.00 | 51 | 1013.8 |
| 20260504191753 | 23 | 195 | 6.4 | 8.0 | 0.00 | 0.00 | 0.00 | 54 | 1013.6 |
| 20260504191249 | 23 | 199 | 4.8 | 8.0 | 0.00 | 0.00 | 0.00 | 52 | 1013.7 |
| 20260504190745 | 23 | 150 | 6.4 | 9.7 | 0.00 | 0.00 | 0.00 | 55 | 1013.9 |
| 20260504190242 | 23 | 228 | 3.2 | 4.8 | 0.00 | 0.00 | 0.00 | 50 | 1013.7 |
| 20260504185738 | 23 | 145 | 9.7 | 16.1 | 0.00 | 0.00 | 0.00 | 51 | 1013.5 |
| 20260504185235 | 23 | 181 | 8.0 | 11.3 | 0.00 | 0.00 | 0.00 | 54 | 1013.8 |
| 20260504184731 | 23 | 191 | 8.0 | 9.7 | 0.00 | 0.00 | 0.00 | 53 | 1013.9 |
| 20260504184227 | 23 | 244 | 9.7 | 11.3 | 0.00 | 0.00 | 0.00 | 53 | 1013.7 |
| 20260504183723 | 23 | 224 | 11.3 | 12.9 | 0.00 | 0.00 | 0.00 | 54 | 1013.9 |
| 20260504183220 | 23 | 246 | 6.4 | 8.0 | 0.00 | 0.00 | 0.00 | 52 | 1013.9 |
| 20260504182719 | 23 | 211 | 3.2 | 3.2 | 0.00 | 0.00 | 0.00 | 57 | 1014.1 |
| 20260504182215 | 23 | 216 | 11.3 | 12.9 | 0.00 | 0.00 | 0.00 | 53 | 1014.0 |
| 20260504181713 | 23 | 152 | 1.6 | 3.2 | 0.00 | 0.00 | 0.00 | 52 | 1014.3 |
| 20260504181210 | 23 | 117 | 4.8 | 4.8 | 0.00 | 0.00 | 0.00 | 52 | 1014.4 |
| 20260504180709 | 23 | 183 | 8.0 | 14.5 | 0.00 | 0.00 | 0.00 | 53 | 1014.5 |
| 20260504180207 | 22 | 200 | 9.7 | 11.3 | 0.00 | 0.00 | 0.00 | 53 | 1014.6 |
| 20260504175704 | 22 | 185 | 8.0 | 11.3 | 0.00 | 0.00 | 0.00 | 55 | 1014.5 |
| 20260504175201 | 23 | 165 | 4.8 | 8.0 | 0.00 | 0.00 | 0.00 | 54 | 1014.1 |
| 20260504174659 | 22 | 244 | 11.3 | 12.9 | 0.00 | 0.00 | 0.00 | 55 | 1014.6 |
| 20260504174156 | 22 | 158 | 12.9 | 16.1 | 0.00 | 0.00 | 0.00 | 55 | 1014.5 |
| 20260504173653 | 22 | 238 | 4.8 | 8.0 | 0.00 | 0.00 | 0.00 | 55 | 1014.5 |
| 20260504173150 | 22 | 199 | 6.4 | 8.0 | 0.00 | 0.00 | 0.00 | 57 | 1014.7 |
| 20260504172647 | 21 | 183 | 6.4 | 9.7 | 0.00 | 0.00 | 0.00 | 57 | 1014.7 |
| 20260504172143 | 21 | 206 | 4.8 | 8.0 | 0.00 | 0.00 | 0.00 | 57 | 1014.8 |
| 20260504171639 | 22 | 141 | 3.2 | 3.2 | 0.00 | 0.00 | 0.00 | 57 | 1014.9 |
| 20260504171137 | 21 | 250 | 9.7 | 14.5 | 0.00 | 0.00 | 0.00 | 57 | 1014.8 |
| 20260504170633 | 21 | 183 | 1.6 | 3.2 | 0.00 | 0.00 | 0.00 | 58 | 1015.1 |
| 20260504170131 | 21 | 254 | 6.4 | 8.0 | 0.00 | 0.00 | 0.00 | 57 | 1015.0 |
| 20260504151016 | 17 | 221 | 4.8 | 4.8 | 0.00 | 0.00 | 0.00 | 59 | 1016.5 |
| 20260504150514 | 17 | 247 | 12.9 | 14.5 | 0.00 | 0.00 | 0.00 | 60 | 1016.5 |
| 20260504140940 | 16 | 220 | 4.8 | 4.8 | 0.00 | 0.00 | 0.00 | 67 | 1016.7 |
| 20260504140436 | 16 | 170 | 3.2 | 3.2 | 0.00 | 0.00 | 0.00 | 65 | 1016.7 |